Weather reports worldwide

Advertisment
Logan Botanic Garden, United Kingdom (99193): temperature & dewpoint: 17.01.2019 02:00:00 - 23.01.2019 02:00:00 (GMT)Logan Botanic Garden, United Kingdom (99193): temperature -20cm: 17.01.2019 02:00:00 - 23.01.2019 02:00:00 (GMT)Logan Botanic Garden, United Kingdom (99193): precipitation: 17.01.2019 02:00:00 - 23.01.2019 02:00:00 (GMT)
Date & Time tt [°C] td [°C] tt -20cm [°C] rr [mm]
23.01.2019 02:00:00 - - - -
23.01.2019 01:00:00 0,3 -0,7 - 0,0
23.01.2019 00:00:00 1,1 0,3 - 0,0
22.01.2019 23:00:00 0,9 -0,1 - 0,4
22.01.2019 22:00:00 1,9 1,1 - 0,6
22.01.2019 21:00:00 1,9 1,2 - 0,0
22.01.2019 20:00:00 1,1 0,7 - 0,0
22.01.2019 19:00:00 0,5 -0,2 - 0,0
22.01.2019 18:00:00 2,6 0,0 - 0,0
22.01.2019 17:00:00 3,1 0,4 - 0,2
22.01.2019 16:00:00 4,1 -0,2 - 0,0
22.01.2019 15:00:00 4,6 0,2 - 0,0
22.01.2019 14:00:00 4,4 0,9 - 0,0
22.01.2019 13:00:00 4,3 0,9 - 0,0
22.01.2019 12:00:00 3,9 1,0 - 0,0
22.01.2019 11:00:00 3,7 1,0 - 0,0
22.01.2019 10:00:00 3,4 1,3 - 0,0
22.01.2019 09:00:00 2,5 1,1 6,2 0,0
22.01.2019 08:00:00 2,6 0,9 - 0,0
22.01.2019 07:00:00 2,5 0,9 - 0,0
22.01.2019 06:00:00 3,0 1,1 - 0,0
22.01.2019 05:00:00 2,5 0,5 - 0,0
22.01.2019 04:00:00 3,9 2,5 - 0,0
22.01.2019 03:00:00 3,2 1,9 - 0,6
22.01.2019 02:00:00 3,2 1,8 - 0,4
22.01.2019 01:00:00 3,7 1,4 - 0,0
22.01.2019 00:00:00 3,4 1,4 - 0,2
21.01.2019 23:00:00 4,1 2,0 - 0,0
21.01.2019 22:00:00 4,0 2,3 - 0,2
21.01.2019 21:00:00 4,8 1,9 - 0,0
21.01.2019 20:00:00 4,8 2,7 - 0,6
21.01.2019 19:00:00 6,4 5,5 - 2,4
21.01.2019 18:00:00 6,4 4,9 - 1,6
21.01.2019 17:00:00 6,7 4,3 - 0,4
21.01.2019 16:00:00 7,1 3,0 - 0,0
21.01.2019 15:00:00 6,8 2,5 - 0,0
21.01.2019 14:00:00 6,5 1,7 - 0,0
21.01.2019 13:00:00 6,2 0,9 - 0,0
21.01.2019 12:00:00 6,0 1,1 - 0,0
21.01.2019 11:00:00 6,0 1,5 - 0,0
21.01.2019 10:00:00 5,8 1,3 - 0,0
21.01.2019 09:00:00 5,4 0,8 6,7 0,0
21.01.2019 08:00:00 5,5 0,6 - 0,0
21.01.2019 07:00:00 3,1 2,0 - 0,0
21.01.2019 06:00:00 2,3 1,6 - 0,0
21.01.2019 05:00:00 2,5 1,7 - 0,0
21.01.2019 04:00:00 3,4 2,6 - 0,0
21.01.2019 03:00:00 2,0 1,4 - 0,0
21.01.2019 02:00:00 1,7 1,2 - 0,0
21.01.2019 01:00:00 0,5 -0,2 - 0,0
21.01.2019 00:00:00 1,1 0,3 - 0,0
20.01.2019 23:00:00 1,8 0,3 - 0,0
20.01.2019 22:00:00 3,1 1,2 - 0,0
20.01.2019 21:00:00 3,2 -0,3 - 0,0
20.01.2019 20:00:00 3,7 0,4 - 0,0
20.01.2019 19:00:00 3,3 0,8 - 0,0
20.01.2019 18:00:00 4,3 0,7 - 0,0
20.01.2019 17:00:00 5,6 2,0 - 0,0
20.01.2019 16:00:00 5,9 2,6 - 0,0
20.01.2019 15:00:00 6,7 2,6 - 0,0
20.01.2019 14:00:00 6,9 4,2 - 0,0
20.01.2019 13:00:00 6,4 5,2 - 0,4
20.01.2019 12:00:00 8,0 6,4 - 0,0
20.01.2019 11:00:00 6,8 5,8 - 0,0
20.01.2019 10:00:00 5,1 4,1 - 0,0
20.01.2019 09:00:00 4,2 3,8 6,7 0,0
20.01.2019 08:00:00 4,0 3,4 - 0,0
20.01.2019 07:00:00 3,7 2,8 - 0,0
20.01.2019 06:00:00 4,2 3,3 - 0,0
20.01.2019 05:00:00 4,8 3,8 - 0,0
20.01.2019 04:00:00 4,2 3,4 - 0,0
20.01.2019 03:00:00 4,4 3,4 - 0,0
20.01.2019 02:00:00 4,7 3,4 - 0,0
20.01.2019 01:00:00 5,1 3,6 - 0,0
20.01.2019 00:00:00 4,9 3,6 - 0,0
19.01.2019 23:00:00 5,2 3,5 - 0,0
19.01.2019 22:00:00 4,8 3,4 - 0,0
19.01.2019 21:00:00 4,5 3,1 - 0,0
19.01.2019 20:00:00 4,3 3,1 - 0,0
19.01.2019 19:00:00 4,5 3,1 - 0,0
19.01.2019 18:00:00 4,6 3,1 - 0,0
19.01.2019 17:00:00 4,7 3,4 - 0,0
19.01.2019 16:00:00 4,5 3,7 - 0,0
19.01.2019 15:00:00 4,5 3,7 - 0,0
19.01.2019 14:00:00 4,7 3,8 - 0,0
19.01.2019 13:00:00 4,8 3,4 - 0,0
19.01.2019 12:00:00 4,5 3,2 - 0,0
19.01.2019 11:00:00 4,6 3,3 - 0,0
19.01.2019 10:00:00 5,3 3,9 - 0,0
19.01.2019 09:00:00 5,2 3,9 6,7 0,0
19.01.2019 08:00:00 5,1 4,1 - 0,0
19.01.2019 07:00:00 5,1 4,2 - 0,0
19.01.2019 06:00:00 5,4 4,3 - 0,0
19.01.2019 05:00:00 5,3 4,2 - 0,0
19.01.2019 04:00:00 5,4 4,5 - 0,0
19.01.2019 03:00:00 5,4 4,4 - 0,0
19.01.2019 02:00:00 5,6 4,3 - 0,0
19.01.2019 01:00:00 5,7 4,6 - 0,0
19.01.2019 00:00:00 5,8 5,0 - 0,2
18.01.2019 23:00:00 6,1 5,3 - 0,4
18.01.2019 22:00:00 6,1 5,4 - 1,2
18.01.2019 21:00:00 6,0 5,5 - 4,4
18.01.2019 20:00:00 5,9 5,3 - 1,8
18.01.2019 19:00:00 5,8 5,1 - 0,6
18.01.2019 18:00:00 5,7 4,9 - 0,0
18.01.2019 17:00:00 5,1 4,2 - 0,0
18.01.2019 16:00:00 5,0 3,9 - 0,0
18.01.2019 15:00:00 4,6 3,7 - 0,4
18.01.2019 14:00:00 4,2 3,4 - 0,4
18.01.2019 13:00:00 4,3 2,7 - 0,6
18.01.2019 12:00:00 4,3 2,2 - 0,8
18.01.2019 11:00:00 4,3 2,1 - 0,6
18.01.2019 10:00:00 5,0 2,0 - 0,2
18.01.2019 09:00:00 5,4 1,6 7,0 0,0
18.01.2019 08:00:00 5,4 1,2 - 0,0
18.01.2019 07:00:00 5,2 2,0 - 0,0
18.01.2019 06:00:00 4,2 2,5 - 0,8
18.01.2019 05:00:00 4,7 0,6 - 0,0
18.01.2019 04:00:00 4,8 0,2 - 0,0
18.01.2019 03:00:00 4,0 -0,2 - 0,0
18.01.2019 02:00:00 4,1 -0,8 - 0,0
18.01.2019 01:00:00 3,7 -1,5 - 0,0
18.01.2019 00:00:00 3,3 -1,6 - 0,0
17.01.2019 23:00:00 3,0 -1,8 - 0,0
17.01.2019 22:00:00 2,7 -2,0 - 0,0
17.01.2019 21:00:00 0,5 -2,4 - 0,0
17.01.2019 20:00:00 0,6 -2,1 - 0,0
17.01.2019 19:00:00 1,3 -1,2 - 0,0
17.01.2019 18:00:00 1,5 -1,6 - 0,0
17.01.2019 17:00:00 1,3 -2,0 - 0,0
17.01.2019 16:00:00 3,2 -2,9 - 0,0
17.01.2019 15:00:00 4,2 -3,1 - 0,0
17.01.2019 14:00:00 5,0 -3,1 - 0,0
17.01.2019 13:00:00 5,3 -2,8 - 0,0
17.01.2019 12:00:00 5,1 -2,1 - 0,0
17.01.2019 11:00:00 4,2 -1,1 - 0,0
17.01.2019 10:00:00 3,3 -1,7 - 0,0
17.01.2019 09:00:00 2,9 -1,5 7,7 0,0
17.01.2019 08:00:00 2,5 -2,7 - 0,0
17.01.2019 07:00:00 2,1 -2,8 - 0,0
17.01.2019 06:00:00 2,3 -2,9 - 0,0
17.01.2019 05:00:00 2,6 -2,7 - 0,0
17.01.2019 04:00:00 2,6 -1,6 - 0,0
17.01.2019 03:00:00 3,0 -2,9 - 0,0
17.01.2019 02:00:00 3,0 -1,5 - 0,0

tt = temperature
td = dewpoint
tt -20cm = temperature -20cm
rr = precipitation

Next stations